019  
ASUS44 KLIX 101706  
RWRLIX  
NEW ORLEANS REGIONAL WEATHER ROUNDUP  
NATIONAL WEATHER SERVICE NEW ORLEANS LA  
1200 PM CDT WED AUG 10 2022  
 
NOTE: "FAIR" INDICATES FEW OR NO CLOUDS BELOW 12,000 FEET WITH NO  
SIGNIFICANT WEATHER AND/OR S TO VISIBILITY
.  
SKY/WX - SKY CONDITION AND SIGNIFICANT WEATHER.  
TMP - AIR TEMPERATURE. DP - DEWPOINT TEMPERATURE.  
RH - RELATIVE HUMIDITY. PRES - PRESSURE.  
HI - HEAT INDEX. WCI - WIND CHILL INDEX.  
 
* THESE STATIONS ARE NOT NWS OR FAA STATIONS AND ARE NOT UNDER  
NWS QUALITY CONTROL.  
 
LAZ038-048-061-063-065>067-069-076-077-101800-  
SOUTHEAST LOUISIANA  
 
CITY SKY/WX TMP DP RH WIND PRES REMARKS
 
N.O. INTL ARPT PTSUNNY 85 74 69 CALM 30.11F  
N.O. DWNTWN HE HVY RAIN 77 72 84 VRB5 30.13F VSB 3/4  
N.O. LAKEFRONT PTSUNNY 84 74 71 SE12 30.12F  
RESERVE* NOT AVBL  
SLIDELL PTSUNNY 88 75 65 VRB3 30.11F HX 97  
BATON ROUGE PTSUNNY 91 75 59 SE5 30.10F HX 101  
BOOTHVILLE* CLOUDY 78 74 86 N3 30.13F  
BELLE CHASSE* PTSUNNY 86 77 74 E8G16 30.11F THUNDER HX 97  
BOGALUSA* FAIR 87 75 65 S6 30.13F HX 96  
GALLIANO* NOT AVBL  
NEW ROADS* CLOUDY 85 74 68 W3 30.11S  
GONZALES* PTSUNNY 86 71 61 SE10 30.10F  
HAMMOND* CLOUDY 82 73 74 E7 30.13S  
HOUMA* PTSUNNY 79 73 83 SE12 30.14R  
 

 
 
MSZ070-077-080>082-101800-  
SOUTHERN MISSISSIPPI  
 
CITY SKY/WX TMP DP RH WIND PRES REMARKS
 
MCCOMB CLOUDY 81 73 76 E7 30.12F  
PICAYUNE* PTSUNNY 84 77 79 SE8 30.12F  
GULFPORT PTSUNNY 81 73 76 E10 30.13F  
BILOXI CLOUDY 79 76 90 E8 30.12F  
PASCAGOULA LGT RAIN 76 75 97 E3 30.15F  
STENNIS ARPT* MOSUNNY 81 73 78 E8 30.13F  
 

 
 
COASTAL OBSERVATIONS  
LAKE AND NEARSHORE STATIONS  
 
STATION/POSITION TIME SKY/WX TEMP WIND PRES WAVE
 
AIR SEA DIR/SP/G HT/PER  
(UTC) (F) (DEG/KT/KT) (MB) (FT/S)  
WAVELAND YACHT 1630 83 85 90/ 7/ 9 1021.1  
GRAND ISLE 1630 81 86 1020.5  
SOUTHWEST PASS 1630 74 87 1018.9  
NEW CANAL 1630 82 60/ 9/ 10 1019.1  
SHELL BEACH 1630 82 85 50/ 9/ 11 1020.5  
 
OFFSHORE STATIONS  
 
STATION/POSITION TIME SKY/WX TEMP WIND PRES WAVE
 
AIR SEA DIR/SP/G HT/PER  
(UTC) (F) (DEG/KT/KT) (MB) (FT/S)  
64 S DAUPHIN ISL 1640 83 85 100/ 6/ 8 1020.7  
SW PASS ENTRANCE 1630 79 86 N/A 2/ 6  
LA OFFSHORE OIL 1635 N/A 2  
 

 
 
 
 
CLICK HERE TO GO TO PREVIOUS BULLETINS.

The Nexlab LA Page
The Nexlab MS Page Main Text Page